User: anonymous   Login
Location: Elstree
(51.6403°N, 0.2969°W)
Time: 21:12:54
(UTC+00:00)
Language:

deb Delta 107 - Orbit

View from above orbital plane
View from above orbital plane
View from above satellite
View from above satellite

Ground track
Ground track

The orbit data is extracted from the following two-line orbital elements,

1 08964U 75004AW  22024.56239574  .00000181  00000-0  75503-4 0  9998
2 08964  97.6557  39.3926 0107241 112.4552 248.8034 14.32181246390569
Epoch (UTC): 24 January 2022 13:29:50
Eccentricity: 0.0107241
inclination: 97.6557°
perigee height: 707 km
apogee height: 861 km
right ascension of ascending node: 39.3926°
argument of perigee: 112.4552°
revolutions per day: 14.32181246
mean anomaly at epoch: 248.8034°
orbit number at epoch: 39056

The dashed part of the orbit path shows where the satellite is in the earth's shadow,  

DLR